WZZ18S UKOO-LKPR

Flight info

Callsign WZZ18S
Flight time 1h 52m
Altitude 36000
Route TURSA N190 DOBOK DCT BUKOV/K0809F360 N190 MALBE/N0438F360 P27 UPLAV L726 VLM
Aircraft A320/M-SDE3FGHIRWY/LB1

Departure

Time 2026-05-07 08:21
Airport Odesa International Airport (UKOO)

Arrival

Time 2026-05-07 10:13
Airport Václav Havel Airport Prague (LKPR)
Time Latitude Longitude Altitude Speed Heading
2026-05-07 07:59 46.44188 30.67386 173 ft 0 kts 79°
2026-05-07 08:08 46.44185 30.67367 174 ft 3 kts 79°
2026-05-07 08:08 46.44182 30.67339 174 ft 3 kts 82°
2026-05-07 08:08 46.44180 30.67312 174 ft 2 kts 91°
2026-05-07 08:09 46.44180 30.67296 174 ft 1 kts 115°
2026-05-07 08:09 46.44185 30.67285 174 ft 1 kts 147°
2026-05-07 08:09 46.44192 30.67279 174 ft 1 kts 163°
2026-05-07 08:09 46.44200 30.67276 174 ft 1 kts 168°
2026-05-07 08:10 46.44208 30.67274 174 ft 1 kts 169°
2026-05-07 08:10 46.44207 30.67274 173 ft 1 kts 169°
2026-05-07 08:10 46.44206 30.67274 173 ft 0 kts 169°
2026-05-07 08:11 46.44205 30.67275 173 ft 1 kts 169°
2026-05-07 08:11 46.44195 30.67277 173 ft 3 kts 169°
2026-05-07 08:12 46.44170 30.67284 171 ft 5 kts 169°
2026-05-07 08:12 46.44130 30.67295 173 ft 7 kts 169°
2026-05-07 08:12 46.44076 30.67309 173 ft 9 kts 169°
2026-05-07 08:12 46.44007 30.67327 173 ft 11 kts 169°
2026-05-07 08:13 46.43940 30.67356 173 ft 10 kts 143°
2026-05-07 08:13 46.43938 30.67446 173 ft 10 kts 80°
2026-05-07 08:13 46.43894 30.67510 173 ft 11 kts 164°
2026-05-07 08:13 46.43817 30.67545 173 ft 13 kts 163°
2026-05-07 08:14 46.43727 30.67585 173 ft 15 kts 163°
2026-05-07 08:14 46.43624 30.67630 173 ft 16 kts 163°
2026-05-07 08:14 46.43509 30.67681 173 ft 18 kts 163°
2026-05-07 08:14 46.43383 30.67735 173 ft 20 kts 163°
2026-05-07 08:15 46.43247 30.67794 173 ft 21 kts 163°
2026-05-07 08:15 46.43152 30.67835 173 ft 22 kts 163°
2026-05-07 08:15 46.42951 30.67921 173 ft 24 kts 163°
2026-05-07 08:15 46.42790 30.67989 173 ft 25 kts 164°
2026-05-07 08:16 46.42621 30.68060 173 ft 26 kts 163°
2026-05-07 08:16 46.42506 30.68109 173 ft 26 kts 164°
2026-05-07 08:16 46.42328 30.68184 173 ft 27 kts 163°
2026-05-07 08:16 46.42143 30.68263 173 ft 28 kts 163°
2026-05-07 08:17 46.41954 30.68344 173 ft 29 kts 164°
2026-05-07 08:17 46.41761 30.68426 173 ft 29 kts 163°
2026-05-07 08:17 46.41610 30.68490 173 ft 16 kts 163°
2026-05-07 08:17 46.41560 30.68505 173 ft 7 kts 188°
2026-05-07 08:18 46.41535 30.68444 173 ft 8 kts 252°
2026-05-07 08:18 46.41517 30.68358 173 ft 10 kts 253°
2026-05-07 08:18 46.41495 30.68254 173 ft 12 kts 253°
2026-05-07 08:18 46.41477 30.68130 173 ft 13 kts 253°
2026-05-07 08:19 46.41449 30.67996 174 ft 15 kts 253°
2026-05-07 08:19 46.41422 30.67865 174 ft 8 kts 253°
2026-05-07 08:19 46.41433 30.67846 174 ft 1 kts 344°
2026-05-07 08:19 46.41446 30.67840 174 ft 6 kts 343°
2026-05-07 08:20 46.41710 30.67727 174 ft 73 kts 342°
2026-05-07 08:20 46.42394 30.67429 173 ft 129 kts 343°
2026-05-07 08:20 46.43402 30.67000 229 ft 166 kts 343°
2026-05-07 08:20 46.44520 30.66538 668 ft 169 kts 341°
2026-05-07 08:21 46.45673 30.66049 1137 ft 176 kts 341°
2026-05-07 08:21 46.46879 30.65524 1583 ft 187 kts 342°
2026-05-07 08:21 46.48164 30.64964 2049 ft 198 kts 342°
2026-05-07 08:21 46.49517 30.64361 2439 ft 212 kts 342°
2026-05-07 08:22 46.50993 30.63711 2822 ft 232 kts 343°
2026-05-07 08:22 46.52596 30.63008 3337 ft 249 kts 343°
2026-05-07 08:22 46.54302 30.62225 3885 ft 266 kts 337°
2026-05-07 08:22 46.55766 30.60554 4546 ft 274 kts 301°
2026-05-07 08:23 46.56335 30.57949 5312 ft 274 kts 266°
2026-05-07 08:23 46.56052 30.55205 6044 ft 278 kts 252°
2026-05-07 08:23 46.55471 30.52511 6765 ft 282 kts 248°
2026-05-07 08:23 46.54799 30.49835 7001 ft 282 kts 247°
2026-05-07 08:24 46.54161 30.47137 7068 ft 284 kts 255°
2026-05-07 08:24 46.53988 30.44276 7098 ft 286 kts 275°
2026-05-07 08:24 46.54452 30.41497 7581 ft 290 kts 287°
2026-05-07 08:24 46.55080 30.38690 8331 ft 294 kts 287°
2026-05-07 08:25 46.55713 30.35853 9097 ft 297 kts 287°
2026-05-07 08:25 46.56351 30.32984 9861 ft 300 kts 287°
2026-05-07 08:25 46.56997 30.30074 10460 ft 308 kts 288°
2026-05-07 08:25 46.57671 30.27037 10787 ft 324 kts 288°
2026-05-07 08:26 46.59122 30.20497 11522 ft 350 kts 288°
2026-05-07 08:26 46.59872 30.17111 12149 ft 354 kts 289°
2026-05-07 08:26 46.60626 30.13694 12796 ft 357 kts 289°
2026-05-07 08:27 46.61387 30.10243 13434 ft 360 kts 289°
2026-05-07 08:27 46.62155 30.06757 14051 ft 363 kts 289°
2026-05-07 08:27 46.62923 30.03248 14604 ft 365 kts 289°
2026-05-07 08:27 46.63696 29.99710 15172 ft 368 kts 289°
2026-05-07 08:28 46.64475 29.96151 15740 ft 369 kts 290°
2026-05-07 08:28 46.65471 29.92714 16327 ft 369 kts 300°
2026-05-07 08:28 46.66695 29.89423 16905 ft 371 kts 300°
2026-05-07 08:28 46.67918 29.86116 17477 ft 372 kts 300°
2026-05-07 08:29 46.69144 29.82775 18054 ft 374 kts 300°
2026-05-07 08:29 46.70372 29.79420 18608 ft 376 kts 300°
2026-05-07 08:29 46.71609 29.76042 19104 ft 378 kts 300°
2026-05-07 08:29 46.72834 29.72694 19618 ft 381 kts 300°
2026-05-07 08:30 46.74080 29.69282 20116 ft 383 kts 300°
2026-05-07 08:30 46.75339 29.65836 20639 ft 386 kts 300°
2026-05-07 08:30 46.76606 29.62368 21138 ft 389 kts 300°
2026-05-07 08:30 46.77878 29.58873 21634 ft 391 kts 299°
2026-05-07 08:31 46.79156 29.55352 22096 ft 394 kts 300°
2026-05-07 08:31 46.80440 29.51812 22576 ft 396 kts 300°
2026-05-07 08:31 46.81732 29.48248 23060 ft 398 kts 300°
2026-05-07 08:31 46.83030 29.44662 23532 ft 401 kts 300°
2026-05-07 08:32 46.84336 29.41043 23942 ft 403 kts 300°
2026-05-07 08:32 46.85644 29.37422 24334 ft 404 kts 299°
2026-05-07 08:32 46.86961 29.33773 24727 ft 406 kts 300°
2026-05-07 08:32 46.88280 29.30114 25112 ft 407 kts 300°
2026-05-07 08:33 46.89605 29.26430 25487 ft 409 kts 299°
2026-05-07 08:33 46.90930 29.22740 25852 ft 410 kts 299°
2026-05-07 08:33 46.92258 29.19038 26210 ft 412 kts 299°
2026-05-07 08:33 46.93588 29.15326 26564 ft 413 kts 299°
2026-05-07 08:34 46.94924 29.11592 26914 ft 415 kts 299°
2026-05-07 08:34 46.96261 29.07850 27260 ft 416 kts 299°
2026-05-07 08:34 46.97604 29.04083 27583 ft 418 kts 299°
2026-05-07 08:34 46.98948 29.00304 27917 ft 419 kts 299°
2026-05-07 08:35 47.00296 28.96512 28260 ft 421 kts 299°
2026-05-07 08:35 47.01649 28.92701 28583 ft 422 kts 299°
2026-05-07 08:35 47.02990 28.88917 28898 ft 424 kts 299°
2026-05-07 08:35 47.04345 28.85074 29229 ft 426 kts 298°
2026-05-07 08:36 47.05708 28.81208 29545 ft 427 kts 298°
2026-05-07 08:36 47.07075 28.77336 29855 ft 429 kts 299°
2026-05-07 08:36 47.08449 28.73450 30245 ft 428 kts 299°
2026-05-07 08:36 47.09812 28.69583 30641 ft 426 kts 298°
2026-05-07 08:37 47.11168 28.65730 31036 ft 424 kts 298°
2026-05-07 08:37 47.12501 28.61875 31415 ft 423 kts 298°
2026-05-07 08:37 47.13792 28.58001 31807 ft 421 kts 297°
2026-05-07 08:37 47.15050 28.54124 32180 ft 420 kts 297°
2026-05-07 08:38 47.16296 28.50241 32562 ft 419 kts 296°
2026-05-07 08:38 47.17535 28.46382 32937 ft 418 kts 296°
2026-05-07 08:38 47.18781 28.42522 33316 ft 417 kts 297°
2026-05-07 08:38 47.20024 28.38683 33689 ft 416 kts 296°
2026-05-07 08:39 47.21268 28.34849 34049 ft 415 kts 296°
2026-05-07 08:39 47.22509 28.31023 34345 ft 414 kts 296°
2026-05-07 08:39 47.23746 28.27207 34622 ft 413 kts 296°
2026-05-07 08:39 47.24980 28.23394 34902 ft 412 kts 296°
2026-05-07 08:40 47.26216 28.19575 35158 ft 412 kts 296°
2026-05-07 08:40 47.27445 28.15772 35398 ft 411 kts 296°
2026-05-07 08:40 47.28674 28.11966 35628 ft 411 kts 296°
2026-05-07 08:40 47.29899 28.08161 35874 ft 411 kts 296°
2026-05-07 08:41 47.31118 28.04362 36033 ft 411 kts 295°
2026-05-07 08:41 47.32345 28.00532 36067 ft 415 kts 295°
2026-05-07 08:41 47.34814 27.92796 36066 ft 417 kts 295°
2026-05-07 08:42 47.37283 27.85054 36064 ft 417 kts 295°
2026-05-07 08:42 47.39753 27.77318 36061 ft 417 kts 295°
2026-05-07 08:43 47.42221 27.69556 36062 ft 417 kts 295°
2026-05-07 08:43 47.44670 27.61787 36054 ft 417 kts 295°
2026-05-07 08:44 47.47109 27.54045 36055 ft 416 kts 294°
2026-05-07 08:44 47.49549 27.46277 36033 ft 418 kts 294°
2026-05-07 08:45 47.51991 27.38461 36044 ft 418 kts 294°
2026-05-07 08:45 47.54411 27.30682 36046 ft 418 kts 294°
2026-05-07 08:46 47.56844 27.22846 36043 ft 419 kts 294°
2026-05-07 08:46 47.59267 27.15007 36037 ft 419 kts 294°
2026-05-07 08:47 47.61683 27.07136 36041 ft 419 kts 294°
2026-05-07 08:47 47.64104 26.99267 36033 ft 420 kts 294°
2026-05-07 08:48 47.66530 26.91371 36028 ft 420 kts 294°
2026-05-07 08:48 47.68944 26.83466 36026 ft 421 kts 293°
2026-05-07 08:49 47.71353 26.75532 36021 ft 421 kts 293°
2026-05-07 08:49 47.73759 26.67582 36025 ft 422 kts 293°
2026-05-07 08:50 47.76151 26.59678 36031 ft 422 kts 293°
2026-05-07 08:50 47.78553 26.51705 36030 ft 423 kts 293°
2026-05-07 08:51 47.80953 26.43726 36046 ft 423 kts 293°
2026-05-07 08:51 47.83343 26.35720 36043 ft 423 kts 293°
2026-05-07 08:52 47.85728 26.27707 36041 ft 423 kts 293°
2026-05-07 08:52 47.88116 26.19705 36033 ft 422 kts 293°
2026-05-07 08:53 47.90492 26.11710 36031 ft 422 kts 292°
2026-05-07 08:53 47.92855 26.03711 36025 ft 421 kts 292°
2026-05-07 08:54 47.95191 25.95761 36012 ft 421 kts 292°
2026-05-07 08:54 47.97399 25.87690 36011 ft 420 kts 290°
2026-05-07 08:55 47.99477 25.79548 36008 ft 419 kts 289°
2026-05-07 08:55 48.01555 25.71405 36002 ft 419 kts 290°
2026-05-07 08:56 48.03652 25.63275 36005 ft 419 kts 290°
2026-05-07 08:56 48.05746 25.55168 35998 ft 418 kts 290°
2026-05-07 08:57 48.07840 25.47050 35997 ft 418 kts 290°
2026-05-07 08:57 48.09920 25.38989 35991 ft 417 kts 290°
2026-05-07 08:58 48.12007 25.30884 35986 ft 417 kts 290°
2026-05-07 08:58 48.14080 25.22767 35988 ft 417 kts 289°
2026-05-07 08:59 48.16145 25.14637 35993 ft 417 kts 289°
2026-05-07 08:59 48.18210 25.06516 35997 ft 417 kts 289°
2026-05-07 09:00 48.20272 24.98388 35990 ft 417 kts 289°
2026-05-07 09:00 48.22321 24.90257 35992 ft 417 kts 289°
2026-05-07 09:01 48.24366 24.82096 35990 ft 418 kts 289°
2026-05-07 09:01 48.26063 24.75312 35991 ft 418 kts 289°
2026-05-07 09:02 48.28428 24.65814 35994 ft 418 kts 289°
2026-05-07 09:02 48.30458 24.57640 35999 ft 418 kts 289°
2026-05-07 09:03 48.32154 24.50798 36001 ft 418 kts 289°
2026-05-07 09:03 48.34172 24.42645 35996 ft 418 kts 288°
2026-05-07 09:04 48.36184 24.34449 35992 ft 418 kts 288°
2026-05-07 09:04 48.38197 24.26221 35992 ft 419 kts 288°
2026-05-07 09:05 48.40212 24.17997 35998 ft 419 kts 288°
2026-05-07 09:05 48.42220 24.09748 35998 ft 420 kts 288°
2026-05-07 09:06 48.44207 24.01530 35998 ft 420 kts 288°
2026-05-07 09:06 48.46199 23.93243 35996 ft 421 kts 288°
2026-05-07 09:07 48.48191 23.84941 35998 ft 421 kts 287°
2026-05-07 09:07 48.50185 23.76622 35999 ft 422 kts 287°
2026-05-07 09:08 48.52176 23.68295 36007 ft 422 kts 287°
2026-05-07 09:08 48.54157 23.59958 36002 ft 422 kts 287°
2026-05-07 09:09 48.56129 23.51623 36003 ft 422 kts 287°
2026-05-07 09:09 48.58097 23.43276 36010 ft 422 kts 287°
2026-05-07 09:10 48.60060 23.34930 36012 ft 421 kts 287°
2026-05-07 09:10 48.62005 23.26608 36016 ft 420 kts 287°
2026-05-07 09:11 48.63947 23.18291 36013 ft 420 kts 286°
2026-05-07 09:11 48.65881 23.09968 36011 ft 419 kts 286°
2026-05-07 09:12 48.67809 23.01635 36009 ft 419 kts 286°
2026-05-07 09:12 48.69725 22.93316 36011 ft 419 kts 286°
2026-05-07 09:13 48.71640 22.84992 36010 ft 418 kts 286°
2026-05-07 09:13 48.73542 22.76675 36011 ft 418 kts 286°
2026-05-07 09:14 48.75436 22.68343 36005 ft 418 kts 285°
2026-05-07 09:14 48.77311 22.60076 36002 ft 418 kts 285°
2026-05-07 09:15 48.79197 22.51731 35996 ft 418 kts 285°
2026-05-07 09:15 48.81070 22.43384 35998 ft 418 kts 285°
2026-05-07 09:16 48.82731 22.34954 35992 ft 415 kts 278°
2026-05-07 09:16 48.83847 22.26354 35992 ft 416 kts 278°
2026-05-07 09:17 48.84960 22.17738 35994 ft 416 kts 278°
2026-05-07 09:17 48.86062 22.09112 35990 ft 416 kts 278°
2026-05-07 09:18 48.87155 22.00485 35985 ft 416 kts 277°
2026-05-07 09:18 48.88236 21.91914 35986 ft 416 kts 277°
2026-05-07 09:19 48.89325 21.83279 35986 ft 416 kts 277°
2026-05-07 09:19 48.90414 21.74645 35991 ft 415 kts 277°
2026-05-07 09:20 48.91486 21.66012 35985 ft 415 kts 277°
2026-05-07 09:20 48.92545 21.57391 35978 ft 415 kts 277°
2026-05-07 09:21 48.93600 21.48767 35976 ft 414 kts 277°
2026-05-07 09:21 48.94650 21.40154 35977 ft 414 kts 277°
2026-05-07 09:22 48.95686 21.31543 35973 ft 413 kts 276°
2026-05-07 09:22 48.96645 21.22930 35975 ft 413 kts 275°
2026-05-07 09:23 48.97523 21.14299 35970 ft 412 kts 275°
2026-05-07 09:23 48.98458 21.05687 35967 ft 412 kts 276°
2026-05-07 09:24 48.99464 20.97155 35963 ft 412 kts 276°
2026-05-07 09:24 49.00465 20.88572 35956 ft 411 kts 276°
2026-05-07 09:25 49.01448 20.79995 35956 ft 411 kts 276°
2026-05-07 09:25 49.02422 20.71405 35956 ft 411 kts 276°
2026-05-07 09:26 49.03386 20.62814 35968 ft 411 kts 275°
2026-05-07 09:26 49.04349 20.54210 35975 ft 411 kts 275°
2026-05-07 09:27 49.05305 20.45613 35985 ft 411 kts 275°
2026-05-07 09:28 49.06675 20.32698 35989 ft 410 kts 272°
2026-05-07 09:28 49.07190 20.24061 35987 ft 408 kts 269°
2026-05-07 09:29 49.07537 20.15409 35991 ft 408 kts 269°
2026-05-07 09:29 49.07919 20.06825 35989 ft 408 kts 270°
2026-05-07 09:30 49.08353 19.98182 35986 ft 409 kts 270°
2026-05-07 09:30 49.08795 19.89538 35979 ft 408 kts 270°
2026-05-07 09:31 49.09224 19.80890 35968 ft 408 kts 270°
2026-05-07 09:31 49.09643 19.72235 35963 ft 409 kts 270°
2026-05-07 09:32 49.10050 19.63564 35964 ft 410 kts 270°
2026-05-07 09:32 49.11040 19.55002 35967 ft 414 kts 276°
2026-05-07 09:33 49.12165 19.46393 35969 ft 413 kts 276°
2026-05-07 09:33 49.13284 19.37772 35967 ft 414 kts 276°
2026-05-07 09:34 49.14398 19.29153 35967 ft 414 kts 276°
2026-05-07 09:34 49.15483 19.20510 35967 ft 413 kts 274°
2026-05-07 09:35 49.16225 19.11839 35961 ft 410 kts 271°
2026-05-07 09:35 49.16747 19.03146 35956 ft 411 kts 270°
2026-05-07 09:36 49.17289 18.94444 35963 ft 411 kts 271°
2026-05-07 09:36 49.17899 18.85746 35979 ft 412 kts 271°
2026-05-07 09:37 49.18515 18.77123 35983 ft 411 kts 271°
2026-05-07 09:37 49.19119 18.68421 35982 ft 411 kts 271°
2026-05-07 09:38 49.19709 18.59720 35976 ft 411 kts 271°
2026-05-07 09:38 49.20310 18.51028 35985 ft 412 kts 274°
2026-05-07 09:39 49.21383 18.42374 35978 ft 414 kts 275°
2026-05-07 09:39 49.22474 18.33731 35982 ft 414 kts 275°
2026-05-07 09:40 49.23556 18.25077 35977 ft 414 kts 275°
2026-05-07 09:40 49.24623 18.16428 35965 ft 413 kts 275°
2026-05-07 09:41 49.25688 18.07773 35958 ft 413 kts 275°
2026-05-07 09:41 49.26750 17.99134 35956 ft 413 kts 275°
2026-05-07 09:42 49.27795 17.90533 35947 ft 413 kts 275°
2026-05-07 09:42 49.28847 17.81830 35953 ft 413 kts 275°
2026-05-07 09:43 49.29880 17.73232 35951 ft 413 kts 275°
2026-05-07 09:43 49.30911 17.64563 35952 ft 413 kts 274°
2026-05-07 09:44 49.31799 17.55886 35953 ft 408 kts 266°
2026-05-07 09:44 49.31183 17.47407 35944 ft 397 kts 249°
2026-05-07 09:45 49.29527 17.39356 35950 ft 396 kts 249°
2026-05-07 09:45 49.27893 17.31304 35955 ft 396 kts 249°
2026-05-07 09:46 49.26259 17.23252 35957 ft 396 kts 248°
2026-05-07 09:46 49.24623 17.15303 35953 ft 394 kts 248°
2026-05-07 09:47 49.22956 17.07266 35959 ft 395 kts 248°
2026-05-07 09:47 49.21297 16.99276 35664 ft 395 kts 248°
2026-05-07 09:47 49.20733 16.96557 35075 ft 397 kts 248°
2026-05-07 09:48 49.19654 16.91347 34552 ft 383 kts 247°
2026-05-07 09:48 49.19113 16.88741 34268 ft 380 kts 247°
2026-05-07 09:48 49.18313 16.84918 33835 ft 376 kts 246°
2026-05-07 09:48 49.17519 16.81145 33402 ft 370 kts 247°
2026-05-07 09:49 49.16736 16.77425 32997 ft 365 kts 247°
2026-05-07 09:49 49.16141 16.73659 32587 ft 366 kts 256°
2026-05-07 09:49 49.16048 16.69803 32188 ft 371 kts 267°
2026-05-07 09:49 49.16488 16.65895 31732 ft 379 kts 278°
2026-05-07 09:50 49.17485 16.62127 31269 ft 388 kts 290°
2026-05-07 09:50 49.18772 16.58498 30811 ft 387 kts 290°
2026-05-07 09:50 49.20049 16.54877 30351 ft 387 kts 289°
2026-05-07 09:50 49.21316 16.51248 29876 ft 386 kts 289°
2026-05-07 09:51 49.22569 16.47630 29411 ft 384 kts 289°
2026-05-07 09:51 49.23811 16.44030 28972 ft 382 kts 289°
2026-05-07 09:51 49.25045 16.40447 28548 ft 379 kts 289°
2026-05-07 09:51 49.26273 16.36886 28121 ft 377 kts 289°
2026-05-07 09:52 49.27494 16.33346 27704 ft 375 kts 289°
2026-05-07 09:52 49.28711 16.29813 27283 ft 373 kts 289°
2026-05-07 09:52 49.29917 16.26311 26889 ft 370 kts 289°
2026-05-07 09:52 49.31112 16.22843 26504 ft 368 kts 289°
2026-05-07 09:53 49.32308 16.19384 26118 ft 365 kts 289°
2026-05-07 09:53 49.33491 16.15964 25720 ft 362 kts 288°
2026-05-07 09:53 49.34668 16.12564 25323 ft 360 kts 289°
2026-05-07 09:53 49.35838 16.09185 24914 ft 357 kts 289°
2026-05-07 09:54 49.37001 16.05822 24510 ft 355 kts 288°
2026-05-07 09:54 49.38149 16.02480 24108 ft 353 kts 288°
2026-05-07 09:54 49.39287 15.99147 23697 ft 352 kts 288°
2026-05-07 09:54 49.40425 15.95818 23236 ft 351 kts 289°
2026-05-07 09:55 49.41544 15.92557 22823 ft 347 kts 289°
2026-05-07 09:55 49.42663 15.89287 22419 ft 345 kts 289°
2026-05-07 09:55 49.43769 15.86042 22005 ft 341 kts 289°
2026-05-07 09:55 49.44867 15.82818 21600 ft 339 kts 289°
2026-05-07 09:56 49.45956 15.79620 21196 ft 337 kts 290°
2026-05-07 09:56 49.47040 15.76438 20796 ft 335 kts 290°
2026-05-07 09:56 49.48120 15.73267 20388 ft 333 kts 290°
2026-05-07 09:56 49.49190 15.70124 19994 ft 331 kts 291°
2026-05-07 09:57 49.50256 15.66981 19589 ft 330 kts 291°
2026-05-07 09:57 49.51313 15.63857 19195 ft 329 kts 291°
2026-05-07 09:57 49.52368 15.60740 18794 ft 328 kts 291°
2026-05-07 09:57 49.53416 15.57633 18403 ft 327 kts 292°
2026-05-07 09:58 49.54462 15.54530 17974 ft 326 kts 292°
2026-05-07 09:58 49.55506 15.51434 17567 ft 324 kts 292°
2026-05-07 09:58 49.56542 15.48364 17167 ft 322 kts 292°
2026-05-07 09:58 49.57567 15.45314 16782 ft 319 kts 292°
2026-05-07 09:59 49.58584 15.42282 16398 ft 317 kts 292°
2026-05-07 09:59 49.59593 15.39265 16006 ft 316 kts 292°
2026-05-07 09:59 49.60600 15.36256 15631 ft 314 kts 292°
2026-05-07 09:59 49.61598 15.33273 15252 ft 312 kts 292°
2026-05-07 10:00 49.62575 15.30338 14880 ft 311 kts 292°
2026-05-07 10:00 49.63560 15.27379 14503 ft 310 kts 292°
2026-05-07 10:00 49.64545 15.24427 14125 ft 309 kts 292°
2026-05-07 10:00 49.65526 15.21483 13752 ft 308 kts 292°
2026-05-07 10:01 49.66513 15.18513 13336 ft 307 kts 293°
2026-05-07 10:01 49.67483 15.15592 12944 ft 304 kts 293°
2026-05-07 10:01 49.68431 15.12732 12594 ft 302 kts 293°
2026-05-07 10:01 49.69383 15.09857 12225 ft 300 kts 293°
2026-05-07 10:02 49.70360 15.06969 11844 ft 299 kts 297°
2026-05-07 10:02 49.71565 15.04399 11475 ft 299 kts 304°
2026-05-07 10:02 49.72843 15.01862 11112 ft 297 kts 304°
2026-05-07 10:02 49.74112 14.99343 10752 ft 296 kts 304°
2026-05-07 10:03 49.75366 14.96849 10383 ft 290 kts 304°
2026-05-07 10:03 49.76585 14.94415 10026 ft 284 kts 304°
2026-05-07 10:03 49.77791 14.91998 9657 ft 283 kts 304°
2026-05-07 10:03 49.78990 14.89589 9294 ft 282 kts 304°
2026-05-07 10:04 49.80184 14.87197 8937 ft 280 kts 304°
2026-05-07 10:04 49.81364 14.84819 8600 ft 278 kts 304°
2026-05-07 10:04 49.82519 14.82482 8257 ft 267 kts 304°
2026-05-07 10:04 49.83631 14.80231 7938 ft 262 kts 304°
2026-05-07 10:05 49.84737 14.77985 7609 ft 261 kts 303°
2026-05-07 10:05 49.85836 14.75752 7287 ft 260 kts 304°
2026-05-07 10:05 49.86929 14.73526 6960 ft 259 kts 304°
2026-05-07 10:05 49.88017 14.71309 6631 ft 258 kts 304°
2026-05-07 10:06 49.89100 14.69099 6316 ft 257 kts 304°
2026-05-07 10:06 49.90183 14.66890 5973 ft 256 kts 304°
2026-05-07 10:06 49.91261 14.64692 5645 ft 255 kts 304°
2026-05-07 10:06 49.92331 14.62509 5327 ft 254 kts 304°
2026-05-07 10:07 49.93224 14.60694 5100 ft 251 kts 304°
2026-05-07 10:07 49.94257 14.58586 5029 ft 240 kts 303°
2026-05-07 10:07 49.95228 14.56575 4938 ft 230 kts 303°
2026-05-07 10:07 49.96175 14.54629 4831 ft 222 kts 303°
2026-05-07 10:08 49.97088 14.52761 4779 ft 213 kts 303°
2026-05-07 10:08 49.97951 14.50998 4729 ft 193 kts 303°
2026-05-07 10:08 49.98724 14.49417 4579 ft 175 kts 302°
2026-05-07 10:08 49.99406 14.48023 4392 ft 149 kts 302°
2026-05-07 10:09 50.00025 14.46748 4202 ft 148 kts 302°
2026-05-07 10:09 50.00643 14.45475 4009 ft 148 kts 302°
2026-05-07 10:09 50.01260 14.44207 3816 ft 146 kts 301°
2026-05-07 10:09 50.01874 14.42946 3608 ft 146 kts 301°
2026-05-07 10:10 50.02487 14.41686 3448 ft 146 kts 302°
2026-05-07 10:10 50.03097 14.40432 3251 ft 145 kts 301°
2026-05-07 10:10 50.03708 14.39174 3054 ft 145 kts 302°
2026-05-07 10:10 50.04316 14.37924 2854 ft 144 kts 302°
2026-05-07 10:11 50.04920 14.36679 2673 ft 144 kts 302°
2026-05-07 10:11 50.05523 14.35435 2480 ft 144 kts 301°
2026-05-07 10:11 50.06103 14.34234 2258 ft 134 kts 302°
2026-05-07 10:11 50.06663 14.33095 2039 ft 132 kts 300°
2026-05-07 10:12 50.07214 14.31957 1840 ft 132 kts 299°
2026-05-07 10:12 50.07758 14.30816 1714 ft 131 kts 298°
2026-05-07 10:12 50.08303 14.29681 1526 ft 131 kts 298°
2026-05-07 10:12 50.08857 14.28555 1322 ft 131 kts 300°
2026-05-07 10:13 50.09399 14.27440 1212 ft 125 kts 302°
2026-05-07 10:13 50.09778 14.26648 1206 ft 50 kts 307°
2026-05-07 10:13 50.09928 14.26342 1198 ft 35 kts 306°
2026-05-07 10:13 50.10076 14.26038 1191 ft 35 kts 304°
2026-05-07 10:14 50.10226 14.25749 1188 ft 34 kts 321°
2026-05-07 10:14 50.10407 14.25651 1183 ft 14 kts 334°
2026-05-07 10:14 50.10470 14.25675 1182 ft 11 kts 37°
2026-05-07 10:14 50.10492 14.25807 1177 ft 15 kts 79°
2026-05-07 10:15 50.10515 14.25988 1173 ft 19 kts 78°
2026-05-07 10:15 50.10537 14.26156 1173 ft 12 kts 81°
2026-05-07 10:15 50.10553 14.26241 1171 ft 8 kts 33°
2026-05-07 10:15 50.10590 14.26278 1172 ft 3 kts 34°
2026-05-07 10:16 50.10594 14.26282 1173 ft 0 kts 34°